[Date Prev][Date Next][Thread Prev][Thread Next] - [Date Index][Thread Index][Author Index]
2 Line ISS Keps 8-20
- Subject: [sarex] 2 Line ISS Keps 8-20
- From: "Dave Larsen PhD" <doc@xxxxxxxxxxx>
- Date: Fri, 20 Aug 2004 04:17:08 -0700
ISS
1 25544U 98067A 04233.31470591 .00011859 00000-0 10000-3 0 4872
2 25544 51.6342 358.3590 0007548 114.7094 336.9932 15.70283701328390
----
Via the sarex mailing list at AMSAT.ORG courtesy of AMSAT-NA.
To unsubscribe, send "unsubscribe sarex" to Majordomo@amsat.org
AMSAT Home